Regional Weather Roundup
Issued by NWS

Home | Current Version | Previous Version | Text Only | Print | Product List | Glossary Off
Versions: 1 2 3 4 5 6 7 8 9 10 11 12 13 14 15 16 17 18 19 20 21 22 23 24 25 26 27 28 29 30 31 32 33 34 35 36 37 38 39 40 41 42 43 44 45 46 47 48 49 50

000
ASUS43 KLMK 232002
RWRKY
KENTUCKY REGIONAL WEATHER ROUNDUP
NATIONAL WEATHER SERVICE LOUISVILLE KY
400 PM EDT WED JUL 23 2014

NOTE "FAIR" INDICATES FEW OR NO CLOUDS BELOW 12,000 FEET
WITH NO SIGNIFICANT WEATHER AND/OR OBSTRUCTIONS TO VISIBILITY.

KYZ001>023-026-027-061>063-070>075-232100-
WESTERN AND SOUTH CENTRAL KENTUCKY

CITY           SKY/WX    TMP DP  RH WIND       PRES   REMARKS
PADUCAH        CLOUDY    74  69  85 NW3       29.97S
HENDERSON      CLOUDY    81  68  65 NW9       30.00F
OWENSBORO      PTSUNNY   83  68  60 NW9       30.00F
HOPKINSVILLE   PTSUNNY   90  71  54 W13       29.97R HX  96
BOWLING GREEN  PTSUNNY   90  68  48 W9        29.96S HX  94
GLASGOW        MOSUNNY   92  68  45 SW9       29.96F HX  96
$$

KYZ024-025-028>034-038-045-046-053-232100-
NORTH CENTRAL KENTUCKY

CITY           SKY/WX    TMP DP  RH WIND       PRES   REMARKS
LOUISVILLE/SDF CLOUDY    86  69  56 W10       29.98F HX  90
LOUISVILLE/LOU PTSUNNY   86  66  51 NW9       29.98F
FORT KNOX      PTSUNNY   83  73  72 W10       29.98F
$$

KYZ035>037-039>044-047>052-055>060-089>105-232100-
NORTHEAST KENTUCKY

CITY           SKY/WX    TMP DP  RH WIND       PRES   REMARKS
LEXINGTON      PTSUNNY   87  70  56 W9        29.99S HX  92
COVINGTON      PTSUNNY   82  71  69 W7        30.00S
FRANKFORT      CLOUDY    82  70  66 W7        29.98F
$$

KYZ054-064>069-076>088-106>120-232100-
SOUTHEAST KENTUCKY

CITY           SKY/WX    TMP DP  RH WIND       PRES   REMARKS
JACKSON        PTSUNNY   82  72  71 CALM      30.00F
LONDON         PTSUNNY   84  73  69 CALM      30.01F HX  90
SOMERSET       MOSUNNY   86  70  58 S8        29.97F HX  90
MIDDLESBORO    CLOUDY    76  69  79 SE5       30.06S
MONTICELLO     PTCLDY    89  71  55 S7        29.99F HX  95
$$




USA.gov is the U.S. government's official web portal to all federal, state and local government web resources and services.